This demonstration page uses our WeatherBlox Daily Observations layout. Learn more.

Left ArrowRight Arrow

39.12711, -84.51439

Hourly Observations for January 13, 2022

Temp ( °F °C ) Dew Point ( °F °C ) Humidity (%) Winds ( mph kmh ) Pressure ( in mb ) Visibility ( mi km ) Precip ( " mm )
12:53 am 00:53 Clear 30 -1.1 27 -2.8 88 88 Calm 30.01 1016 10 16 0.00 0.00
1:53 am 01:53 Clear 29 -1.7 27 -2.8 92 92 Calm 29.99 1016 10 16 0.00 0.00
2:53 am 02:53 Clear 28 -2.2 27 -2.8 96 96 Calm 29.99 1016 10 16 0.00 0.00
3:53 am 03:53 Clear 28 -2.2 27 -2.8 96 96 Calm 29.97 1015 10 16 0.00 0.00
4:53 am 04:53 Clear 27 -2.8 25 -3.9 92 92 Calm 29.94 1014 10 16 0.00 0.00
5:53 am 05:53 Clear 28 -2.2 27 -2.8 96 96 Calm 29.94 1014 10 16 0.00 0.00
6:53 am 06:53 Clear 28 -2.2 27 -2.8 96 96 Calm 29.93 1014 10 16 0.00 0.00
7:53 am 07:53 Clear 28 -2.2 27 -2.8 96 96 Calm 29.92 1013 10 16 0.00 0.00
8:53 am 08:53 Sunny 28 -2.2 27 -2.8 96 96 Calm 29.91 1013 10 16 0.00 0.00
9:53 am 09:53 Sunny 35 1.7 32 0 89 89 Calm 29.89 1012 10 16 0.00 0.00
10:53 am 10:53 Partly Cloudy 41 5 33 0.6 73 73 Calm 29.88 1012 10 16 0.00 0.00
11:53 am 11:53 Mostly Cloudy 46 7.8 32 0 58 58 Calm 29.86 1011 10 16 0.00 0.00
12:53 pm 12:53 Mostly Cloudy 46 7.8 31 -0.6 56 56 Calm 29.83 1010 10 16 0.00 0.00
1:53 pm 13:53 Cloudy 48 8.9 32 0 54 54 WSW 6 9 29.82 1010 10 16 0.00 0.00
2:53 pm 14:53 Cloudy 48 8.9 32 0 54 54 WSW 3 6 29.82 1010 10 16 0.00 0.00
3:53 pm 15:53 Cloudy 48 8.9 32 0 54 54 N 5 7 29.83 1010 10 16 0.00 0.00
4:53 pm 16:53 Cloudy 45 7.2 35 1.7 68 68 N 5 7 29.85 1011 10 16 0.00 0.00
5:53 pm 17:53 Cloudy 45 7.2 34 1.1 66 66 NW 6 9 29.88 1012 10 16 0.00 0.00
6:53 pm 18:53 Cloudy 44 6.7 34 1.1 68 68 N 6 9 29.90 1013 10 16 0.00 0.00
7:53 pm 19:53 Cloudy 43 6.1 35 1.7 74 74 Calm 29.92 1013 10 16 0.00 0.00
8:53 pm 20:53 Cloudy 43 6.1 34 1.1 71 71 N 5 7 29.94 1014 10 16 0.00 0.00
9:53 pm 21:53 Cloudy 42 5.6 34 1.1 73 73 N 9 15 29.95 1014 10 16 0.00 0.00
10:53 pm 22:53 Cloudy 41 5 34 1.1 76 76 NNE 6 9 29.97 1015 10 16 0.00 0.00
11:53 pm 23:53 Cloudy 40 4.4 33 0.6 77 77 N 6 9 29.98 1015 10 16 0.00 0.00

Powered by AerisWeather